When you browse on this site, cookies collect data to enhance your experience and personalize the content and advertising you see.
Visit our Privacy Policy to learn more. By continuing to use the site, you agree to this use of cookies and data.
  • In Schweiz
  • Länderverzeichnis
  • Für 7 Tage
  • Wassertemperatur
  • Satellitenkarten
  • Wetterkarte
  • Widgets
  • user-avatar
    Anmelden

    Stündliche Wetter Tomas Barron

    Heute, 20 April, Samstag

    Zeit Temperatur Niederschläge Wind Luftdruck Luftfeuchtigkeit
    00:00 +12°C° 0.6 mm 2 m/S 480 mmHg 65%
    01:00 +10°C° 0.6 mm 3 m/S 479 mmHg 66%
    02:00 +10°C° 0.6 mm 3 m/S 479 mmHg 68%
    03:00 +10°C° 0.1 mm 3 m/S 479 mmHg 68%
    04:00 +10°C° 0.1 mm 3 m/S 479 mmHg 69%
    05:00 +9°C° 0.1 mm 3 m/S 478 mmHg 69%
    06:00 +10°C° 0 mm 3 m/S 479 mmHg 66%
    07:00 +10°C° 0 mm 3 m/S 479 mmHg 63%
    08:00 +10°C° 0 mm 3 m/S 480 mmHg 60%
    09:00 +12°C° 0 mm 3 m/S 481 mmHg 54%
    10:00 +13°C° 0 mm 3 m/S 481 mmHg 48%
    11:00 +16°C° 0 mm 2 m/S 482 mmHg 42%
    12:00 +16°C° 0.1 mm 2 m/S 482 mmHg 40%
    13:00 +17°C° 0.1 mm 2 m/S 482 mmHg 37%
    14:00 +18°C° 0.1 mm 2 m/S 482 mmHg 34%
    15:00 +18°C° 0.1 mm 2 m/S 481 mmHg 34%
    16:00 +18°C° 0.1 mm 2 m/S 481 mmHg 34%
    17:00 +18°C° 0.1 mm 2 m/S 481 mmHg 33%
    18:00 +16°C° 0 mm 3 m/S 480 mmHg 42%
    19:00 +14°C° 0 mm 3 m/S 479 mmHg 50%
    20:00 +12°C° 0 mm 4 m/S 479 mmHg 58%
    21:00 +12°C° 0.4 mm 3 m/S 479 mmHg 62%
    22:00 +11°C° 0.4 mm 3 m/S 479 mmHg 66%
    23:00 +10°C° 0.4 mm 2 m/S 479 mmHg 69%

    Morgen, 21 April, Sonntag

    Zeit Temperatur Niederschläge Wind Luftdruck Luftfeuchtigkeit
    00:00 +10°C° 0.6 mm 3 m/S 479 mmHg 72%
    01:00 +9°C° 0.6 mm 3 m/S 478 mmHg 74%
    02:00 +8°C° 0.6 mm 4 m/S 478 mmHg 76%
    03:00 +8°C° 0.5 mm 4 m/S 478 mmHg 77%
    04:00 +7°C° 0.5 mm 4 m/S 477 mmHg 77%
    05:00 +7°C° 0.5 mm 4 m/S 477 mmHg 77%
    06:00 +8°C° 0.2 mm 3 m/S 478 mmHg 75%
    07:00 +9°C° 0.2 mm 3 m/S 478 mmHg 74%
    08:00 +9°C° 0.2 mm 3 m/S 478 mmHg 72%
    09:00 +11°C° 0.1 mm 3 m/S 479 mmHg 64%
    10:00 +12°C° 0.1 mm 3 m/S 480 mmHg 56%
    11:00 +14°C° 0.1 mm 4 m/S 481 mmHg 47%
    12:00 +14°C° 0.2 mm 3 m/S 481 mmHg 44%
    13:00 +16°C° 0.2 mm 3 m/S 481 mmHg 40%
    14:00 +17°C° 0.2 mm 3 m/S 481 mmHg 37%
    15:00 +17°C° 0.1 mm 3 m/S 481 mmHg 35%
    16:00 +17°C° 0.1 mm 2 m/S 480 mmHg 34%
    17:00 +17°C° 0.1 mm 2 m/S 480 mmHg 32%
    18:00 +16°C° 0 mm 2 m/S 480 mmHg 38%
    19:00 +15°C° 0 mm 2 m/S 479 mmHg 43%
    20:00 +13°C° 0 mm 2 m/S 479 mmHg 48%
    21:00 +12°C° 0 mm 2 m/S 479 mmHg 56%
    22:00 +10°C° 0 mm 2 m/S 479 mmHg 64%
    23:00 +10°C° 0 mm 2 m/S 478 mmHg 71%

    übermorgen, 22 April, Montag

    Zeit Temperatur Niederschläge Wind Luftdruck Luftfeuchtigkeit
    00:00 +9°C° 0 mm 2 m/S 478 mmHg 76%
    01:00 +8°C° 0 mm 2 m/S 477 mmHg 80%
    02:00 +8°C° 0 mm 2 m/S 477 mmHg 84%
    03:00 +7°C° 0 mm 2 m/S 476 mmHg 85%
    04:00 +8°C° 0 mm 1 m/S 476 mmHg 86%
    05:00 +7°C° 0 mm 1 m/S 476 mmHg 87%
    06:00 +8°C° 0 mm 1 m/S 476 mmHg 80%
    07:00 +8°C° 0 mm 1 m/S 477 mmHg 73%
    08:00 +9°C° 0 mm 1 m/S 478 mmHg 66%
    09:00 +11°C° 0 mm 1 m/S 479 mmHg 52%
    10:00 +11°C° 0 mm 0 m/S 480 mmHg 37%
    11:00 +13°C° 0 mm 0 m/S 481 mmHg 23%
    12:00 +14°C° 0 mm 0 m/S 481 mmHg 20%
    13:00 +16°C° 0 mm 1 m/S 480 mmHg 18%
    14:00 +18°C° 0 mm 1 m/S 480 mmHg 15%
    15:00 +18°C° 0 mm 1 m/S 480 mmHg 16%
    16:00 +18°C° 0 mm 1 m/S 480 mmHg 16%
    17:00 +18°C° 0 mm 1 m/S 480 mmHg 16%
    18:00 +16°C° 0 mm 2 m/S 479 mmHg 26%
    19:00 +13°C° 0 mm 3 m/S 479 mmHg 37%
    20:00 +11°C° 0 mm 4 m/S 478 mmHg 47%
    21:00 +11°C° 0 mm 4 m/S 478 mmHg 56%
    22:00 +9°C° 0 mm 5 m/S 478 mmHg 64%
    23:00 +8°C° 0 mm 5 m/S 478 mmHg 73%

    23 April, Dienstag

    Zeit Temperatur Niederschläge Wind Luftdruck Luftfeuchtigkeit
    00:00 +7°C° 0 mm 4 m/S 478 mmHg 73%
    01:00 +7°C° 0 mm 4 m/S 477 mmHg 74%
    02:00 +8°C° 0 mm 3 m/S 477 mmHg 75%
    03:00 +7°C° 0 mm 3 m/S 477 mmHg 77%
    04:00 +7°C° 0 mm 2 m/S 477 mmHg 78%
    05:00 +7°C° 0 mm 2 m/S 476 mmHg 80%
    06:00 +8°C° 0 mm 1 m/S 477 mmHg 77%
    07:00 +8°C° 0 mm 1 m/S 477 mmHg 75%
    08:00 +9°C° 0 mm 1 m/S 478 mmHg 73%
    09:00 +9°C° 0 mm 2 m/S 479 mmHg 64%
    10:00 +12°C° 0 mm 2 m/S 480 mmHg 56%
    11:00 +13°C° 0 mm 2 m/S 481 mmHg 47%
    12:00 +14°C° 0 mm 2 m/S 481 mmHg 45%
    13:00 +15°C° 0 mm 2 m/S 481 mmHg 43%
    14:00 +15°C° 0 mm 2 m/S 480 mmHg 41%
    15:00 +14°C° 0.2 mm 3 m/S 480 mmHg 44%
    16:00 +14°C° 0.2 mm 4 m/S 479 mmHg 47%
    17:00 +13°C° 0.2 mm 4 m/S 479 mmHg 50%
    18:00 +12°C° 0.1 mm 4 m/S 479 mmHg 55%
    19:00 +11°C° 0.1 mm 4 m/S 479 mmHg 60%
    20:00 +11°C° 0.1 mm 4 m/S 479 mmHg 65%
    21:00 +10°C° 0 mm 4 m/S 479 mmHg 67%
    22:00 +10°C° 0 mm 3 m/S 479 mmHg 69%
    23:00 +9°C° 0 mm 3 m/S 479 mmHg 72%

    24 April, Mittwoch

    Zeit Temperatur Niederschläge Wind Luftdruck Luftfeuchtigkeit
    00:00 +9°C° 0 mm 3 m/S 478 mmHg 73%
    01:00 +8°C° 0 mm 2 m/S 478 mmHg 74%
    02:00 +8°C° 0 mm 2 m/S 477 mmHg 75%
    03:00 +8°C° 0 mm 2 m/S 477 mmHg 77%
    04:00 +7°C° 0 mm 2 m/S 477 mmHg 79%
    05:00 +7°C° 0 mm 2 m/S 476 mmHg 80%
    06:00 +7°C° 0 mm 2 m/S 477 mmHg 77%
    07:00 +8°C° 0 mm 2 m/S 478 mmHg 74%
    08:00 +8°C° 0 mm 2 m/S 478 mmHg 71%
    09:00 +10°C° 0 mm 2 m/S 479 mmHg 63%
    10:00 +11°C° 0 mm 3 m/S 480 mmHg 55%
    11:00 +13°C° 0 mm 3 m/S 481 mmHg 47%
    12:00 +14°C° 0 mm 3 m/S 481 mmHg 45%
    13:00 +14°C° 0 mm 3 m/S 481 mmHg 42%
    14:00 +16°C° 0 mm 3 m/S 481 mmHg 40%
    15:00 +16°C° 0 mm 3 m/S 480 mmHg 41%
    16:00 +15°C° 0 mm 4 m/S 480 mmHg 42%
    17:00 +15°C° 0 mm 4 m/S 480 mmHg 43%
    18:00 +13°C° 0 mm 4 m/S 479 mmHg 51%
    19:00 +12°C° 0 mm 5 m/S 479 mmHg 59%
    20:00 +9°C° 0 mm 5 m/S 478 mmHg 67%
    21:00 +9°C° 0 mm 5 m/S 478 mmHg 69%
    22:00 +8°C° 0 mm 5 m/S 478 mmHg 71%
    23:00 +8°C° 0 mm 5 m/S 478 mmHg 73%

    25 April, Donnerstag

    Zeit Temperatur Niederschläge Wind Luftdruck Luftfeuchtigkeit
    00:00 +7°C° 0 mm 4 m/S 478 mmHg 74%
    01:00 +7°C° 0 mm 4 m/S 478 mmHg 76%
    02:00 +6°C° 0 mm 4 m/S 477 mmHg 77%
    03:00 +7°C° 0 mm 3 m/S 477 mmHg 79%
    04:00 +5°C° 0 mm 3 m/S 477 mmHg 81%
    05:00 +6°C° 0 mm 2 m/S 476 mmHg 82%
    06:00 +7°C° 0 mm 3 m/S 477 mmHg 79%
    07:00 +7°C° 0 mm 3 m/S 478 mmHg 76%
    08:00 +8°C° 0 mm 3 m/S 479 mmHg 72%
    09:00 +10°C° 0 mm 3 m/S 480 mmHg 63%
    10:00 +12°C° 0 mm 4 m/S 481 mmHg 54%
    11:00 +13°C° 0 mm 4 m/S 482 mmHg 45%
    12:00 +14°C° 0 mm 4 m/S 482 mmHg 42%
    13:00 +15°C° 0 mm 4 m/S 481 mmHg 40%
    14:00 +16°C° 0 mm 5 m/S 481 mmHg 37%
    15:00 +16°C° 0 mm 5 m/S 481 mmHg 38%
    16:00 +16°C° 0 mm 5 m/S 481 mmHg 39%
    17:00 +15°C° 0 mm 5 m/S 480 mmHg 39%
    18:00 +14°C° 0 mm 5 m/S 480 mmHg 48%
    19:00 +12°C° 0 mm 5 m/S 479 mmHg 56%
    20:00 +10°C° 0 mm 5 m/S 479 mmHg 65%
    21:00 +9°C° 0 mm 5 m/S 479 mmHg 67%
    22:00 +10°C° 0 mm 4 m/S 479 mmHg 70%
    23:00 +9°C° 0 mm 3 m/S 479 mmHg 73%
    Mehr zeigen